TimeCST,TemperatureF,Dew PointF,Humidity,Sea Level PressureIn,VisibilityMPH,Wind Direction,Wind SpeedMPH,Gust SpeedMPH,PrecipitationIn,Events,Conditions,WindDirDegrees,DateUTC
12:15 AM,18.5,16.2,91,30.37,7.0,East,3.5,-,N/A,,Overcast,100,2013-02-09 06:15:00
12:35 AM,18.5,16.2,91,30.37,5.0,ESE,3.5,-,N/A,,Overcast,110,2013-02-09 06:35:00
12:55 AM,18.5,16.2,91,30.38,4.0,SE,3.5,-,N/A,,Overcast,140,2013-02-09 06:55:00
1:15 AM,19.9,17.6,91,30.38,4.0,South,4.6,-,N/A,,Overcast,170,2013-02-09 07:15:00
1:35 AM,21.2,18.9,91,30.38,5.0,SSE,6.9,-,N/A,,Overcast,150,2013-02-09 07:35:00
1:55 AM,21.2,18.9,91,30.38,5.0,SSE,8.1,-,N/A,,Overcast,150,2013-02-09 07:55:00
2:15 AM,21.2,18.9,91,30.38,5.0,SSE,6.9,-,N/A,,Overcast,160,2013-02-09 08:15:00
2:35 AM,21.2,18.9,91,30.37,7.0,SE,8.1,-,N/A,,Overcast,130,2013-02-09 08:35:00
2:55 AM,21.2,18.9,91,30.37,7.0,SE,4.6,-,N/A,,Overcast,140,2013-02-09 08:55:00
3:15 AM,21.2,19.0,91,30.36,10.0,SSE,5.8,-,N/A,,Overcast,160,2013-02-09 09:15:00
3:35 AM,21.7,19.4,91,30.36,10.0,SSE,8.1,-,N/A,,Overcast,150,2013-02-09 09:35:00
3:55 AM,22.1,20.1,92,30.36,7.0,SSE,5.8,-,N/A,,Overcast,150,2013-02-09 09:55:00
4:15 AM,22.5,20.3,91,30.35,5.0,SE,5.8,-,N/A,,Overcast,140,2013-02-09 10:15:00
4:35 AM,23.7,21.7,92,30.36,7.0,SE,6.9,-,N/A,,Overcast,140,2013-02-09 10:35:00
4:55 AM,23.7,21.7,92,30.36,7.0,SE,8.1,-,N/A,,Overcast,130,2013-02-09 10:55:00
5:15 AM,23.7,21.7,92,30.36,7.0,SE,5.8,-,N/A,,Overcast,130,2013-02-09 11:15:00
5:35 AM,23.7,21.7,92,30.36,7.0,SE,8.1,-,N/A,,Overcast,140,2013-02-09 11:35:00
5:55 AM,23.7,21.7,92,30.34,10.0,SE,9.2,-,N/A,,Overcast,140,2013-02-09 11:55:00
6:15 AM,23.7,21.7,92,30.34,10.0,SE,6.9,-,N/A,,Overcast,130,2013-02-09 12:15:00
6:35 AM,23.7,21.7,92,30.35,10.0,SE,6.9,-,N/A,,Overcast,140,2013-02-09 12:35:00
6:55 AM,24.1,22.1,92,30.35,10.0,SE,10.4,-,N/A,,Overcast,140,2013-02-09 12:55:00
7:15 AM,24.4,22.5,92,30.35,10.0,SSE,8.1,-,N/A,,Overcast,160,2013-02-09 13:15:00
7:35 AM,24.6,22.6,92,30.35,10.0,SSE,9.2,-,N/A,,Overcast,160,2013-02-09 13:35:00
7:55 AM,24.8,22.8,92,30.34,10.0,SSE,12.7,-,N/A,,Overcast,150,2013-02-09 13:55:00
8:15 AM,24.8,22.8,92,30.34,10.0,SSE,12.7,-,N/A,,Overcast,150,2013-02-09 14:15:00
8:35 AM,25.7,23.0,89,30.33,10.0,SSE,12.7,-,N/A,,Overcast,150,2013-02-09 14:35:00
8:55 AM,26.2,23.5,90,30.34,10.0,SSE,10.4,-,N/A,,Overcast,150,2013-02-09 14:55:00
9:15 AM,26.2,23.0,88,30.32,10.0,SSE,18.4,21.9,N/A,,Overcast,150,2013-02-09 15:15:00
9:35 AM,26.6,23.2,87,30.33,10.0,SSE,12.7,-,N/A,,Overcast,160,2013-02-09 15:35:00
9:55 AM,27.1,23.4,86,30.32,10.0,SSE,16.1,-,N/A,,Overcast,160,2013-02-09 15:55:00
10:15 AM,27.3,23.5,86,30.32,10.0,SSE,13.8,-,N/A,,Overcast,150,2013-02-09 16:15:00
10:35 AM,27.5,23.5,85,30.31,10.0,SSE,18.4,-,N/A,,Overcast,150,2013-02-09 16:35:00
10:55 AM,28.8,24.8,85,30.30,10.0,SSE,12.7,-,N/A,,Overcast,150,2013-02-09 16:55:00
11:15 AM,28.8,24.8,85,30.29,10.0,SSE,16.1,-,N/A,,Overcast,150,2013-02-09 17:15:00
11:35 AM,28.8,24.8,85,30.27,10.0,SSE,21.9,-,N/A,,Overcast,150,2013-02-09 17:35:00
11:55 AM,28.8,24.8,85,30.25,10.0,SE,18.4,-,N/A,,Overcast,140,2013-02-09 17:55:00
12:15 PM,29.1,25.0,85,30.24,10.0,SE,20.7,24.2,N/A,,Overcast,140,2013-02-09 18:15:00
12:35 PM,30.0,26.2,86,30.22,7.0,SE,20.7,-,N/A,,Overcast,130,2013-02-09 18:35:00
12:55 PM,30.2,26.2,85,30.23,10.0,SSE,19.6,-,N/A,,Overcast,160,2013-02-09 18:55:00
1:15 PM,31.5,27.3,85,30.23,10.0,SSE,16.1,-,N/A,,Overcast,150,2013-02-09 19:15:00
1:35 PM,31.5,27.0,83,30.23,10.0,SSE,16.1,-,N/A,,Overcast,150,2013-02-09 19:35:00
1:55 PM,31.5,27.3,85,30.22,10.0,SSE,12.7,-,N/A,,Overcast,150,2013-02-09 19:55:00
2:15 PM,31.5,27.1,84,30.22,10.0,South,10.4,-,N/A,,Overcast,170,2013-02-09 20:15:00
2:35 PM,31.5,27.0,83,30.21,10.0,SSE,13.8,-,N/A,,Overcast,150,2013-02-09 20:35:00
2:55 PM,31.5,27.3,85,30.21,10.0,SSE,11.5,-,N/A,,Overcast,160,2013-02-09 20:55:00
3:15 PM,32.0,26.6,80,30.20,10.0,SSE,9.2,-,N/A,,Overcast,150,2013-02-09 21:15:00
3:35 PM,31.5,27.3,85,30.19,10.0,SE,11.5,-,N/A,,Overcast,140,2013-02-09 21:35:00
3:55 PM,31.5,27.1,84,30.17,10.0,SSE,11.5,-,N/A,,Overcast,150,2013-02-09 21:55:00
4:15 PM,31.5,27.3,85,30.16,10.0,SE,11.5,-,N/A,,Overcast,140,2013-02-09 22:15:00
4:35 PM,31.5,27.3,85,30.16,10.0,SE,11.5,-,N/A,,Overcast,130,2013-02-09 22:35:00
4:55 PM,31.5,27.3,85,30.15,10.0,ESE,11.5,-,N/A,,Overcast,110,2013-02-09 22:55:00
5:15 PM,31.5,27.3,85,30.14,10.0,ESE,11.5,18.4,N/A,,Overcast,120,2013-02-09 23:15:00
5:35 PM,31.5,27.3,85,30.15,10.0,ESE,9.2,-,N/A,,Overcast,120,2013-02-09 23:35:00
5:55 PM,31.5,27.5,85,30.14,10.0,ESE,10.4,-,N/A,,Overcast,120,2013-02-09 23:55:00
6:15 PM,31.5,27.5,85,30.13,10.0,ESE,10.4,-,N/A,,Overcast,110,2013-02-10 00:15:00
6:35 PM,31.5,27.9,87,30.12,10.0,ESE,11.5,-,N/A,,Overcast,110,2013-02-10 00:35:00
6:55 PM,32.0,28.4,87,30.12,10.0,ESE,11.5,-,N/A,,Overcast,110,2013-02-10 00:55:00
7:15 PM,32.9,29.7,88,30.11,10.0,ESE,11.5,-,N/A,,Overcast,110,2013-02-10 01:15:00
7:35 PM,33.8,30.2,87,30.12,10.0,ESE,10.4,-,N/A,,Overcast,120,2013-02-10 01:35:00
7:55 PM,31.5,28.0,87,30.12,10.0,ESE,10.4,-,N/A,,Scattered Clouds,120,2013-02-10 01:55:00
8:15 PM,30.2,27.1,88,30.11,10.0,ESE,9.2,-,N/A,,Clear,110,2013-02-10 02:15:00
8:35 PM,26.1,23.2,89,30.11,7.0,East,4.6,-,N/A,,Clear,90,2013-02-10 02:35:00
8:55 PM,26.2,23.7,90,30.11,7.0,East,5.8,-,N/A,,Clear,80,2013-02-10 02:55:00
9:15 PM,26.4,23.9,90,30.10,7.0,ENE,5.8,-,N/A,,Clear,60,2013-02-10 03:15:00
9:35 PM,25.0,22.6,91,30.09,5.0,ENE,5.8,-,N/A,,Clear,60,2013-02-10 03:35:00
9:55 PM,23.7,21.2,90,30.08,5.0,ENE,8.1,-,N/A,,Clear,70,2013-02-10 03:55:00
10:15 PM,23.9,22.1,93,30.08,5.0,ENE,6.9,-,N/A,,Clear,60,2013-02-10 04:15:00
10:35 PM,24.3,22.1,91,30.06,5.0,ENE,6.9,-,N/A,,Scattered Clouds,60,2013-02-10 04:35:00
10:55 PM,24.6,22.6,92,30.06,5.0,East,6.9,-,N/A,,Scattered Clouds,80,2013-02-10 04:55:00
11:15 PM,23.7,21.7,92,30.05,5.0,ENE,6.9,-,N/A,,Scattered Clouds,70,2013-02-10 05:15:00
11:35 PM,23.7,21.7,92,30.05,5.0,ENE,6.9,-,N/A,,Clear,70,2013-02-10 05:35:00
11:55 PM,22.8,20.8,92,30.05,4.0,ENE,5.8,-,N/A,,Clear,70,2013-02-10 05:55:00